Lavon Lake Weather Center

Moon Phase Calendar



Lavon Lake Water Level
Online Cameras

 


      

Current Conditions in Culleoka
9/28/2022 10:48:56 PM

75°F
Feels Like 74
Clear
Humidity
44%
Pressure
30.15"
Wind
5.8 mph (SE)
Dew Point
52°F
UV Index
0/10 (Low)
Visibility
6 mi

Hourly Forecast

Date & Time Wed, Sep 28
10:00 PM
Wed, Sep 28
11:00 PM
Thu, Sep 29
12:00 AM
Thu, Sep 29
1:00 AM
Thu, Sep 29
2:00 AM
Thu, Sep 29
3:00 AM
Thu, Sep 29
4:00 AM
Thu, Sep 29
5:00 AM
Thu, Sep 29
6:00 AM
Thu, Sep 29
7:00 AM
Thu, Sep 29
8:00 AM
Thu, Sep 29
9:00 AM
Thu, Sep 29
10:00 AM
Thu, Sep 29
11:00 AM
Thu, Sep 29
12:00 PM
Thu, Sep 29
1:00 PM
Thu, Sep 29
2:00 PM
Thu, Sep 29
3:00 PM
Thu, Sep 29
4:00 PM
Thu, Sep 29
5:00 PM
Thu, Sep 29
6:00 PM
Thu, Sep 29
7:00 PM
Thu, Sep 29
8:00 PM
Thu, Sep 29
9:00 PM
Thu, Sep 29
10:00 PM
Thu, Sep 29
11:00 PM
Fri, Sep 30
12:00 AM
Fri, Sep 30
1:00 AM
Fri, Sep 30
2:00 AM
Fri, Sep 30
3:00 AM
Fri, Sep 30
4:00 AM
Fri, Sep 30
5:00 AM
Fri, Sep 30
6:00 AM
Fri, Sep 30
7:00 AM
Fri, Sep 30
8:00 AM
Fri, Sep 30
9:00 AM
Fri, Sep 30
10:00 AM
Fri, Sep 30
11:00 AM
Fri, Sep 30
12:00 PM
Fri, Sep 30
1:00 PM
Fri, Sep 30
2:00 PM
Fri, Sep 30
3:00 PM
Fri, Sep 30
4:00 PM
Fri, Sep 30
5:00 PM
Fri, Sep 30
6:00 PM
Fri, Sep 30
7:00 PM
Fri, Sep 30
8:00 PM
Fri, Sep 30
9:00 PM
Condition
Clear

Clear

Clear

Clear

Clear

Clear

Clear

Clear

Clear

Clear

Clear

Clear

Clear

Clear

Clear

Clear

Clear

Clear

Clear

Clear

Clear

Clear

Clear

Clear

Clear

Clear

Clear

Clear

Clear

Clear

Clear

Clear

Clear

Clear

Clear

Clear

Clear

Clear

Clear

Clear

Clear

Clear

Clear

Clear

Clear

Clear

Clear

Clear
Temperature 74°F75°F74°F72°F70°F67°F64°F62°F61°F60°F60°F64°F68°F72°F75°F78°F80°F81°F81°F81°F79°F73°F69°F68°F67°F66°F64°F62°F61°F60°F59°F58°F57°F57°F58°F63°F68°F72°F75°F78°F80°F81°F82°F81°F79°F72°F68°F66°F
Feels Like 74°F74°F73°F71°F69°F66°F62°F61°F59°F58°F58°F61°F66°F70°F73°F76°F80°F79°F80°F79°F79°F72°F68°F66°F65°F64°F62°F60°F59°F58°F57°F56°F55°F54°F55°F60°F66°F70°F74°F76°F80°F79°F80°F79°F79°F71°F67°F65°F
Cloudiness 0%0%0%0%0%0%0%0%0%0%0%0%0%0%0%0%0%0%0%0%0%0%0%0%0%0%0%0%0%0%0%0%0%0%0%0%0%0%0%0%0%0%0%0%0%0%2%1%
Visibility 6 mi6 mi6 mi6 mi6 mi6 mi6 mi6 mi6 mi6 mi6 mi6 mi6 mi6 mi6 mi6 mi6 mi6 mi6 mi6 mi6 mi6 mi6 mi6 mi6 mi6 mi6 mi6 mi6 mi6 mi6 mi6 mi6 mi6 mi6 mi6 mi6 mi6 mi6 mi6 mi6 mi6 mi6 mi6 mi6 mi6 mi6 mi6 mi
Precipitation 0%0%0%0%0%0%0%0%0%0%0%0%0%0%0%0%0%0%0%0%0%0%0%0%0%0%0%0%0%0%0%0%0%0%0%0%0%0%0%0%0%0%0%0%0%0%0%0%
Humidity 43%44%43%44%46%48%51%53%54%52%48%36%29%26%25%25%25%25%25%26%29%37%42%44%44%43%43%44%42%42%42%42%43%43%43%37%31%27%24%23%22%22%22%23%25%32%35%37%
Dew Point 50°F52°F50°F49°F48°F47°F45°F45°F44°F42°F40°F36°F34°F35°F37°F39°F41°F42°F42°F43°F44°F46°F45°F45°F44°F43°F41°F40°F38°F37°F36°F35°F35°F35°F36°F36°F36°F36°F36°F37°F38°F39°F40°F40°F40°F41°F40°F39°F
Pressure 30.15"30.15"30.15"30.18"30.18"30.21"30.21"30.24"30.24"30.27"30.3"30.3"30.3"30.27"30.24"30.21"30.18"30.15"30.12"30.09"30.09"30.09"30.09"30.12"30.12"30.12"30.12"30.12"30.12"30.12"30.12"30.12"30.12"30.12"30.12"30.12"30.12"30.12"30.09"30.06"30.03"30"29.97"29.94"29.94"29.94"29.97"29.97"
Wind Speed 10.7 mph10.9 mph10.1 mph9.4 mph9.4 mph9.1 mph10 mph10.5 mph10.2 mph9.8 mph9.8 mph13.4 mph14.3 mph14.4 mph13.1 mph11.1 mph9.5 mph8.4 mph8 mph8.8 mph10.4 mph10.3 mph9.8 mph9.6 mph9.8 mph9.6 mph9.1 mph8.8 mph8.3 mph8.3 mph7.9 mph7.4 mph6.9 mph6.6 mph6.1 mph6.9 mph8.1 mph8.3 mph7.6 mph7.2 mph7.5 mph7.9 mph8.5 mph8.8 mph8.6 mph8.2 mph8.3 mph7.9 mph
Wind
Direction
127°
SE
135°
SE
142°
SE
137°
SE
128°
SE
116°
ESE
111°
ESE
111°
ESE
113°
ESE
113°
ESE
114°
ESE
121°
ESE
124°
SE
126°
SE
126°
SE
128°
SE
126°
SE
117°
ESE
107°
ESE
100°
E
95°
E
91°
E
100°
E
105°
ESE
102°
ESE
105°
ESE
109°
ESE
113°
ESE
118°
ESE
114°
ESE
112°
ESE
115°
ESE
116°
ESE
117°
ESE
118°
ESE
116°
ESE
110°
ESE
113°
ESE
112°
ESE
105°
ESE
95°
E
88°
E
84°
E
87°
E
95°
E
109°
ESE
119°
ESE
126°
SE

Daily Forecast

Date High Low Precip. Humidity
Today
Sep 28

Clear
89 °F
64 °F
0%
21%
Thursday
Sep 29

Clear
81 °F
60 °F
0%
25%
Friday
Sep 30

Clear
82 °F
57 °F
0%
23%
Saturday
Oct 1

Clear
83 °F
57 °F
0%
24%
Sunday
Oct 2

Clouds
84 °F
58 °F
0%
23%
Monday
Oct 3

Clouds
84 °F
64 °F
0%
24%
Tuesday
Oct 4

Clear
86 °F
62 °F
0%
24%
Wednesday
Oct 5

Clear
88 °F
63 °F
0%
29%
Thursday
Oct 6

Clouds
89 °F
70 °F
0%
25%
Friday
Oct 7

Clouds
93 °F
70 °F
0%
23%
Saturday
Oct 8

Clear
91 °F
64 °F
0%
30%
Sunday
Oct 9

Clear
91 °F
70 °F
0%
36%
Monday
Oct 10

Rain
93 °F
70 °F
21%
47%
Tuesday
Oct 11

Rain
78 °F
58 °F
44%
17%
Wednesday
Oct 12

Clear
78 °F
52 °F
0%
13%
Thursday
Oct 13

Clear
89 °F
61 °F
0%
20%

Temperature 8-14 Day Outlook



Precipitation 8-14 Day Outlook






About Us
Contact Us
Site Map
Search Site
Advertise With Us
   
Lavon.USLakes.info
THE LAVON LAKE WEBSITE

Copyright 2022, Lakes Online
Privacy    |    Legal